Location: Huntsville
(41.2590°N, 111.7678°W)
Time: 19:46:12
(UTC+00:00)

Explorer 7 - Pass Details

Date: 17 June 2021
Orbit: 484 x 676 km, 50.3° (Epoch: 30 July)

Event Time Altitude Azimuth Distance (km) Brightness Sun altitude
Rises 09:24:27 0° 300° (WNW) 2,962 10.6 -19.9°
Reaches altitude 10° 09:27:04 10° 310° (NW) 2,023 9.8 -19.7°
Maximum altitude 09:31:13 31° 13° (NNE) 1,080 8.9 -19.3°
Drops below altitude 10° 09:35:09 10° 77° (ENE) 1,913 10.2 -19.0°
Sets 09:37:33 0° 88° (E) 2,775 10.9 -18.7°
